EN

Hourly Weather London

Today, 25 November, Wednesday

Time Temperature Precipitation Wind Pressure Humidity
00:00 +8°C° 0 mm 4 mps 756 mmHg 90%
01:00 +8°C° 0 mm 4 mps 756 mmHg 91%
02:00 +9°C° 0 mm 3 mps 756 mmHg 91%
03:00 +9°C° 0 mm 3 mps 756 mmHg 91%
04:00 +9°C° 0 mm 3 mps 756 mmHg 92%
05:00 +9°C° 0 mm 3 mps 756 mmHg 92%
06:00 +9°C° 0 mm 3 mps 756 mmHg 92%
07:00 +10°C° 0 mm 3 mps 756 mmHg 93%
08:00 +10°C° 0 mm 3 mps 756 mmHg 93%
09:00 +10°C° 0 mm 4 mps 756 mmHg 93%
10:00 +11°C° 0.1 mm 4 mps 756 mmHg 92%
11:00 +11°C° 0.1 mm 4 mps 757 mmHg 91%
12:00 +12°C° 0.1 mm 5 mps 757 mmHg 89%
13:00 +12°C° 0.1 mm 4 mps 757 mmHg 89%
14:00 +12°C° 0.1 mm 4 mps 757 mmHg 89%
15:00 +12°C° 0.1 mm 3 mps 758 mmHg 90%
16:00 +11°C° 0.2 mm 3 mps 758 mmHg 90%
17:00 +10°C° 0.2 mm 3 mps 759 mmHg 90%
18:00 +8°C° 0.2 mm 4 mps 759 mmHg 90%
19:00 +9°C° 0 mm 3 mps 760 mmHg 87%
20:00 +8°C° 0 mm 3 mps 760 mmHg 84%
21:00 +8°C° 0 mm 3 mps 761 mmHg 82%
22:00 +7°C° 0 mm 2 mps 761 mmHg 82%
23:00 +7°C° 0 mm 2 mps 762 mmHg 82%

Tomorrow, 26 November, Thursday

Time Temperature Precipitation Wind Pressure Humidity
00:00 +6°C° 0 mm 2 mps 762 mmHg 83%
01:00 +6°C° 0 mm 2 mps 762 mmHg 83%
02:00 +7°C° 0 mm 1 mps 762 mmHg 84%
03:00 +6°C° 0 mm 1 mps 763 mmHg 85%
04:00 +6°C° 0 mm 1 mps 763 mmHg 85%
05:00 +6°C° 0 mm 1 mps 763 mmHg 85%
06:00 +6°C° 0 mm 1 mps 763 mmHg 86%
07:00 +6°C° 0 mm 1 mps 763 mmHg 85%
08:00 +6°C° 0 mm 1 mps 764 mmHg 84%
09:00 +5°C° 0 mm 0 mps 764 mmHg 83%
10:00 +6°C° 0 mm 0 mps 764 mmHg 79%
11:00 +8°C° 0 mm 1 mps 764 mmHg 75%
12:00 +9°C° 0 mm 1 mps 764 mmHg 71%
13:00 +9°C° 0 mm 1 mps 764 mmHg 73%
14:00 +9°C° 0 mm 1 mps 763 mmHg 74%
15:00 +9°C° 0 mm 1 mps 763 mmHg 76%
16:00 +8°C° 0 mm 1 mps 763 mmHg 79%
17:00 +7°C° 0 mm 1 mps 763 mmHg 82%
18:00 +6°C° 0 mm 1 mps 763 mmHg 85%
19:00 +6°C° 0 mm 1 mps 763 mmHg 86%
20:00 +6°C° 0 mm 1 mps 764 mmHg 87%
21:00 +6°C° 0 mm 1 mps 764 mmHg 88%
22:00 +5°C° 0 mm 1 mps 764 mmHg 88%
23:00 +5°C° 0 mm 1 mps 764 mmHg 89%

Day after tomorrow, 27 November, Friday

Time Temperature Precipitation Wind Pressure Humidity
00:00 +5°C° 0 mm 1 mps 764 mmHg 89%
01:00 +5°C° 0 mm 1 mps 764 mmHg 89%
02:00 +5°C° 0 mm 1 mps 763 mmHg 90%
03:00 +4°C° 0 mm 1 mps 763 mmHg 90%
04:00 +4°C° 0 mm 1 mps 763 mmHg 90%
05:00 +4°C° 0 mm 1 mps 763 mmHg 90%
06:00 +4°C° 0 mm 1 mps 763 mmHg 90%
07:00 +3°C° 0 mm 2 mps 763 mmHg 90%
08:00 +3°C° 0 mm 2 mps 763 mmHg 90%
09:00 +4°C° 0 mm 2 mps 763 mmHg 90%
10:00 +5°C° 0 mm 2 mps 763 mmHg 87%
11:00 +6°C° 0 mm 2 mps 762 mmHg 83%
12:00 +7°C° 0 mm 2 mps 762 mmHg 80%
13:00 +7°C° 0 mm 3 mps 762 mmHg 81%
14:00 +7°C° 0 mm 3 mps 761 mmHg 82%
15:00 +7°C° 0 mm 3 mps 761 mmHg 84%
16:00 +7°C° 0.3 mm 3 mps 761 mmHg 85%
17:00 +6°C° 0.3 mm 4 mps 760 mmHg 86%
18:00 +5°C° 0.3 mm 4 mps 760 mmHg 88%
19:00 +5°C° 0.5 mm 4 mps 760 mmHg 89%
20:00 +6°C° 0.5 mm 4 mps 760 mmHg 90%
21:00 +6°C° 0.5 mm 4 mps 760 mmHg 90%
22:00 +7°C° 0.2 mm 3 mps 760 mmHg 91%
23:00 +7°C° 0.2 mm 3 mps 760 mmHg 92%

28 November, Saturday

Time Temperature Precipitation Wind Pressure Humidity
00:00 +7°C° 0.2 mm 2 mps 759 mmHg 93%
01:00 +7°C° 0 mm 2 mps 759 mmHg 94%
02:00 +8°C° 0 mm 1 mps 759 mmHg 94%
03:00 +8°C° 0 mm 1 mps 759 mmHg 94%
04:00 +8°C° 0 mm 1 mps 759 mmHg 94%
05:00 +8°C° 0 mm 1 mps 759 mmHg 94%
06:00 +7°C° 0 mm 1 mps 759 mmHg 94%
07:00 +8°C° 0 mm 1 mps 759 mmHg 94%
08:00 +8°C° 0 mm 1 mps 760 mmHg 93%
09:00 +8°C° 0 mm 1 mps 760 mmHg 92%
10:00 +8°C° 0 mm 2 mps 760 mmHg 90%
11:00 +9°C° 0 mm 2 mps 760 mmHg 88%
12:00 +10°C° 0 mm 2 mps 761 mmHg 86%
13:00 +10°C° 0 mm 2 mps 760 mmHg 87%
14:00 +10°C° 0 mm 2 mps 760 mmHg 89%
15:00 +10°C° 0 mm 2 mps 760 mmHg 90%
16:00 +9°C° 0 mm 2 mps 761 mmHg 92%
17:00 +9°C° 0 mm 2 mps 761 mmHg 93%
18:00 +8°C° 0 mm 2 mps 761 mmHg 94%
19:00 +8°C° 0 mm 2 mps 762 mmHg 94%
20:00 +8°C° 0 mm 2 mps 762 mmHg 94%
21:00 +7°C° 0 mm 2 mps 762 mmHg 93%
22:00 +7°C° 0 mm 2 mps 762 mmHg 93%
23:00 +7°C° 0 mm 2 mps 762 mmHg 93%

29 November, Sunday

Time Temperature Precipitation Wind Pressure Humidity
00:00 +7°C° 0 mm 2 mps 763 mmHg 93%
01:00 +7°C° 0 mm 2 mps 763 mmHg 94%
02:00 +7°C° 0 mm 2 mps 763 mmHg 94%
03:00 +7°C° 0 mm 2 mps 763 mmHg 94%
04:00 +7°C° 0 mm 2 mps 763 mmHg 94%
05:00 +7°C° 0 mm 2 mps 763 mmHg 94%
06:00 +6°C° 0 mm 2 mps 763 mmHg 94%
07:00 +7°C° 0 mm 2 mps 763 mmHg 93%
08:00 +7°C° 0 mm 3 mps 764 mmHg 92%
09:00 +7°C° 0 mm 3 mps 764 mmHg 91%
10:00 +8°C° 0 mm 3 mps 764 mmHg 87%
11:00 +9°C° 0 mm 3 mps 764 mmHg 83%
12:00 +10°C° 0 mm 3 mps 764 mmHg 79%
13:00 +10°C° 0 mm 3 mps 764 mmHg 80%
14:00 +9°C° 0 mm 3 mps 764 mmHg 82%
15:00 +9°C° 0 mm 3 mps 764 mmHg 83%
16:00 +8°C° 0 mm 3 mps 764 mmHg 86%
17:00 +7°C° 0 mm 3 mps 765 mmHg 88%
18:00 +7°C° 0 mm 3 mps 765 mmHg 91%
19:00 +5°C° 0 mm 3 mps 765 mmHg 90%
20:00 +6°C° 0 mm 2 mps 765 mmHg 88%
21:00 +5°C° 0 mm 2 mps 766 mmHg 87%
22:00 +5°C° 0 mm 2 mps 766 mmHg 86%
23:00 +5°C° 0 mm 2 mps 766 mmHg 86%

30 November, Monday

Time Temperature Precipitation Wind Pressure Humidity
00:00 +4°C° 0 mm 2 mps 766 mmHg 85%
01:00 +4°C° 0 mm 2 mps 766 mmHg 85%
02:00 +4°C° 0 mm 2 mps 767 mmHg 84%
03:00 +4°C° 0 mm 2 mps 767 mmHg 84%
04:00 +4°C° 0 mm 2 mps 767 mmHg 84%
05:00 +3°C° 0 mm 2 mps 767 mmHg 85%
06:00 +3°C° 0 mm 2 mps 767 mmHg 85%
07:00 +3°C° 0 mm 2 mps 768 mmHg 85%
08:00 +3°C° 0 mm 2 mps 768 mmHg 84%
09:00 +4°C° 0 mm 2 mps 768 mmHg 84%
10:00 +5°C° 0 mm 2 mps 768 mmHg 81%
11:00 +5°C° 0 mm 3 mps 768 mmHg 78%
12:00 +7°C° 0 mm 3 mps 769 mmHg 74%
13:00 +7°C° 0 mm 3 mps 769 mmHg 76%
14:00 +5°C° 0 mm 3 mps 769 mmHg 78%
15:00 +5°C° 0 mm 3 mps 769 mmHg 79%
16:00 +4°C° 0 mm 3 mps 769 mmHg 82%
17:00 +4°C° 0 mm 3 mps 769 mmHg 85%
18:00 +3°C° 0 mm 3 mps 769 mmHg 87%
19:00 +4°C° 0 mm 2 mps 770 mmHg 87%
20:00 +4°C° 0 mm 2 mps 770 mmHg 87%
21:00 +3°C° 0 mm 2 mps 770 mmHg 87%
22:00 +3°C° 0 mm 2 mps 770 mmHg 87%
23:00 +3°C° 0 mm 2 mps 771 mmHg 87%
Show more